Location: Les Jeannots
(43.2262°N, 5.5774°E)
Time: 08:35:46
(UTC+00:00)

NOSS 3-4 (C) - Pass Details

Date: 05 July 2020
Orbit: 891 x 1321 km, 63.4° (Epoch: 12 July)

Event Time Altitude Azimuth Distance (km) Brightness Sun altitude
Rises 22:06:01 0° 324° (NW) 3,813 8.1 -20.5°
Reaches altitude 10° 22:08:35 10° 328° (NNW) 2,916 7.2 -20.7°
Maximum altitude 22:15:30 62° 49° (NE) 1,294 4.1 -21.1°
Enters shadow 22:19:54 27° 121° (ESE) 2,151 4.8 -21.4°
